Portada
METAR-TAF:

METAR-TAF

Aeroports :

Macomb Municipal Airport

Macomb, Illinois, Estats Units d'Amèrica

latitud: 40-31-13N, longitud: 090-39-09W, altitud: 216 m

Observació

L'informe es va fer fa 22 minuts, a les 11:35 UTC
Vent 7 kt del Oest/Nord-Oest
Temperatura 1°C
Humitat 86%
Pressió 1015 hPa
Visibilitat: 16.1 km
Cel clar

METAR: KMQB 091135Z AUTO 30007KT 10SM CLR 01/M01 A2997 RMK AO2 T00111015

Hora: 06:57 (11:57 UTC)


TAF: manca

Observacions i pronòstics meteorològics de més de 4000 aeroports (METAR i TAF).

Les estacions disponibles són els punts grocs i vermells al mapa.

Posi el ratolí al punt desitjat per veure el nom de l'estació.

Feu clic per veure les observacions i els pronòstics meteorològics.

Per canviar el mapa: feu clic els botons verds amb una creu de color negre per apropar; al botó verd amb un guió per allunyar la imatge; o en les fletxes verdes per a mapes adjacents.


METAR-TAF: